FW8782 Weather Reports


Display with metric or nautical units.
time (UTC)temp
F
wind
direction
speed
MPH
gust
MPH
rain 1hr
in
rain 24hr
in
rain mn
in
humidity
%
barometer
mb
20260510231012 69 317 2.0 8.0 0.00 0.00 0.00 57 1019.8
20260510230514 69 259 2.0 8.0 0.00 0.00 0.00 57 1019.9
20260510230033 68 293 3.0 8.0 0.00 0.00 0.00 57 1019.8
20260510225515 68 40 1.0 13.0 0.00 0.00 0.00 60 1019.9
20260510225014 67 188 2.0 13.0 0.00 0.00 0.00 59 1019.9
20260510224532 67 263 2.0 7.0 0.00 0.00 0.00 58 1019.8
20260510224012 67 205 1.0 6.0 0.00 0.00 0.00 60 1019.9
20260510223517 66 221 2.0 8.0 0.00 0.00 0.00 60 1019.9
20260510223030 66 187 1.0 8.0 0.00 0.00 0.00 61 1019.9
20260510222517 65 108 1.0 5.0 0.00 0.00 0.00 60 1019.8
20260510222021 65 173 1.0 5.0 0.00 0.00 0.00 60 1019.9
20260510221536 66 167 1.0 6.0 0.00 0.00 0.00 60 1019.9
20260510221016 67 11 2.0 6.0 0.00 0.00 0.00 59 1019.9
20260510220511 67 243 1.0 4.0 0.00 0.00 0.00 59 1019.8
20260510220032 66 175 1.0 5.0 0.00 0.00 0.00 59 1019.9
20260510215510 66 257 2.0 5.0 0.00 0.00 0.00 59 1019.9
20260510215012 65 325 1.0 7.0 0.00 0.00 0.00 61 1019.9
20260510214536 65 227 1.0 7.0 0.00 0.00 0.00 60 1019.8
20260510214012 65 193 2.0 10.0 0.00 0.00 0.00 58 1019.9
20260510213517 65 200 2.0 10.0 0.00 0.00 0.00 61 1019.9
20260510213030 65 236 1.0 5.0 0.00 0.00 0.00 60 1019.8
20260510212510 65 215 0.0 3.0 0.00 0.00 0.00 60 1019.8
20260510212017 65 35 1.0 8.0 0.00 0.00 0.00 60 1019.7
20260510211531 65 41 2.0 8.0 0.00 0.00 0.00 59 1019.8
20260510211013 64 209 2.0 9.0 0.00 0.00 0.00 60 1019.8
20260510210514 65 240 2.0 10.0 0.00 0.00 0.00 59 1019.7
20260510210032 65 201 2.0 10.0 0.00 0.00 0.00 59 1019.7
20260510205514 66 202 1.0 8.0 0.00 0.00 0.00 60 1019.5
20260510205016 65 301 2.0 5.0 0.00 0.00 0.00 58 1019.6
20260510204531 65 189 1.0 4.0 0.00 0.00 0.00 61 1019.6
20260510204014 65 294 1.0 5.0 0.00 0.00 0.00 60 1019.6
20260510203517 64 137 1.0 5.0 0.00 0.00 0.00 60 1019.7
20260510203032 64 155 1.0 7.0 0.00 0.00 0.00 59 1019.6
20260510202532 65 147 1.0 7.0 0.00 0.00 0.00 59 1019.5
20260510202016 66 139 1.0 6.0 0.00 0.00 0.00 60 1019.5
20260510201531 66 186 1.0 6.0 0.00 0.00 0.00 61 1019.3
20260510201011 66 194 2.0 6.0 0.00 0.00 0.00 59 1019.3
20260510200514 66 15 1.0 7.0 0.00 0.00 0.00 61 1019.2
20260510200033 66 312 2.0 8.0 0.00 0.00 0.00 61 1019.3
20260510195513 66 180 2.0 8.0 0.00 0.00 0.00 60 1019.2
20260510195012 65 186 2.0 5.0 0.00 0.00 0.00 62 1019.1
20260510194543 64 0 1.0 3.0 0.00 0.00 0.00 64 1019.2
20260510194018 64 0 1.0 5.0 0.00 0.00 0.00 62 1019.1
20260510193517 64 209 2.0 6.0 0.00 0.00 0.00 62 1019.1
20260510193033 64 33 2.0 8.0 0.00 0.00 0.00 62 1019.2
20260510192513 64 0 0.0 8.0 0.00 0.00 0.00 65 1019.1
20260510192015 64 235 2.0 8.0 0.00 0.00 0.00 64 1019.1
20260510191532 64 226 2.0 6.0 0.00 0.00 0.00 64 1019.1
20260510191014 64 227 1.0 8.0 0.00 0.00 0.00 65 1018.9
20260510190511 63 75 2.0 8.0 0.00 0.00 0.00 65 1018.9
20260510190030 62 220 3.0 8.0 0.00 0.00 0.00 66 1019.0
20260510185512 62 278 2.0 6.0 0.00 0.00 0.00 66 1019.1
20260510185018 61 247 1.0 6.0 0.00 0.00 0.00 67 1019.0
20260510184530 61 319 2.0 4.0 0.00 0.00 0.00 66 1019.1
20260510184015 61 0 0.0 2.0 0.00 0.00 0.00 67 1019.2
20260510183515 61 0 0.0 2.0 0.00 0.00 0.00 67 1019.2
20260510183032 61 305 1.0 2.0 0.00 0.00 0.00 67 1019.2
20260510182511 61 206 0.0 4.0 0.00 0.00 0.00 68 1019.1
20260510182014 61 238 0.0 4.0 0.00 0.00 0.00 68 1018.9
20260510181530 60 287 1.0 4.0 0.00 0.00 0.00 68 1018.9
20260510181015 60 55 1.0 3.0 0.00 0.00 0.00 68 1019.0
20260510180515 60 0 0.0 2.0 0.00 0.00 0.00 69 1018.9
20260510180035 60 0 1.0 2.0 0.00 0.00 0.00 69 1019.0
20260510175514 59 0 0.0 4.0 0.00 0.00 0.00 70 1019.1
20260510175017 59 229 0.0 4.0 0.00 0.00 0.00 72 1019.0
20260510174530 59 0 0.0 2.0 0.00 0.00 0.00 72 1018.9
20260510174016 59 0 0.0 2.0 0.00 0.00 0.00 73 1019.0
20260510173511 59 0 0.0 2.0 0.00 0.00 0.00 71 1019.0
20260510173032 59 0 0.0 2.0 0.00 0.00 0.00 72 1018.9
20260510172515 58 0 0.0 2.0 0.00 0.00 0.00 72 1018.8
20260510172020 58 0 1.0 2.0 0.00 0.00 0.00 72 1018.7
20260510171534 58 299 0.0 2.0 0.00 0.00 0.00 75 1018.3
20260510171014 58 0 0.0 2.0 0.00 0.00 0.00 75 1018.3
20260510170512 57 265 0.0 3.0 0.00 0.00 0.00 77 1018.4
20260510170034 57 265 1.0 3.0 0.00 0.00 0.00 76 1018.6
20260510165514 57 239 0.0 2.0 0.00 0.00 0.00 77 1018.7
20260510165015 56 0 0.0 2.0 0.00 0.00 0.00 79 1018.7
20260510164530 56 0 0.0 2.0 0.00 0.00 0.00 78 1018.6
20260510164013 55 237 0.0 2.0 0.00 0.00 0.00 78 1018.6
20260510163511 55 242 0.0 2.0 0.00 0.00 0.00 79 1018.7
20260510163037 55 0 1.0 2.0 0.00 0.00 0.00 81 1018.6
20260510162514 55 0 0.0 2.0 0.00 0.00 0.00 82 1018.7
20260510162017 54 0 0.0 2.0 0.00 0.00 0.00 82 1018.7
20260510161529 54 0 0.0 3.0 0.00 0.00 0.00 83 1018.7
20260510161014 54 290 0.0 3.0 0.00 0.00 0.00 82 1018.7
20260510160511 53 260 1.0 2.0 0.00 0.00 0.00 83 1018.6
20260510160042 53 0 0.0 0.0 0.00 0.00 0.00 86 1018.5
20260510155520 52 0 0.0 2.0 0.00 0.00 0.00 86 1018.4
20260510155014 52 0 0.0 2.0 0.00 0.00 0.00 87 1017.9
20260510154530 52 0 0.0 2.0 0.00 0.00 0.00 88 1018.0
20260510154014 51 0 0.0 2.0 0.00 0.00 0.00 89 1018.1
20260510153515 51 0 0.0 0.0 0.00 0.00 0.00 89 1018.1
20260510153030 51 0 0.0 0.0 0.00 0.00 0.00 89 1018.0
20260510152517 51 0 0.0 0.0 0.00 0.00 0.00 89 1017.7
20260510152015 50 0 0.0 0.0 0.00 0.00 0.00 89 1017.6
20260510151532 50 0 0.0 0.0 0.00 0.00 0.00 90 1017.7
20260510151014 50 0 0.0 0.0 0.00 0.00 0.00 90 1017.9
20260510150514 50 0 0.0 2.0 0.00 0.00 0.00 90 1018.1
20260510150030 50 0 0.0 2.0 0.00 0.00 0.00 90 1018.1
20260510145517 49 226 0.0 3.0 0.00 0.00 0.00 90 1018.1
20260510145016 49 0 0.0 3.0 0.00 0.00 0.00 90 1017.9
20260510144541 49 0 0.0 0.0 0.00 0.00 0.00 90 1018.1
20260510144016 49 0 0.0 0.0 0.00 0.00 0.00 90 1018.0
20260510143513 49 0 0.0 0.0 0.00 0.00 0.00 90 1017.6
20260510143046 48 0 0.0 0.0 0.00 0.00 0.00 90 1017.6
20260510142510 48 0 0.0 0.0 0.00 0.00 0.00 90 1017.6
20260510142016 48 0 0.0 0.0 0.00 0.00 0.00 90 1017.7
20260510141537 48 0 0.0 0.0 0.00 0.00 0.00 90 1017.5
20260510141012 48 0 0.0 0.0 0.00 0.00 0.00 90 1017.5
20260510140515 47 0 0.0 0.0 0.00 0.00 0.00 90 1017.5
20260510140035 47 0 0.0 0.0 0.00 0.00 0.00 90 1017.8
20260510135521 47 0 0.0 0.0 0.00 0.00 0.00 90 1017.9
20260510135014 47 0 0.0 0.0 0.00 0.00 0.00 90 1017.8
20260510134532 47 0 0.0 0.0 0.00 0.00 0.00 89 1017.9
20260510134014 47 0 0.0 0.0 0.00 0.00 0.00 89 1017.8
20260510133513 46 0 0.0 0.0 0.00 0.00 0.00 89 1017.9
20260510133036 46 0 0.0 0.0 0.00 0.00 0.00 89 1017.9
20260510132515 46 0 0.0 0.0 0.00 0.00 0.00 89 1017.5
20260510132016 46 0 0.0 0.0 0.00 0.00 0.00 89 1017.3
20260510131533 46 0 0.0 0.0 0.00 0.00 0.00 89 1017.3
20260510131011 46 0 0.0 0.0 0.00 0.00 0.00 89 1017.0
20260510130515 46 0 0.0 0.0 0.00 0.00 0.00 89 1017.0
20260510130033 45 0 0.0 0.0 0.00 0.00 0.00 89 1017.3
20260510125510 45 0 0.0 0.0 0.00 0.00 0.00 89 1017.4
20260510125016 45 0 0.0 0.0 0.00 0.00 0.00 89 1017.3
20260510124530 45 0 0.0 0.0 0.00 0.00 0.00 89 1017.5
20260510124014 45 0 0.0 0.0 0.00 0.00 0.00 89 1017.5
20260510123515 45 0 0.0 0.0 0.00 0.00 0.00 89 1017.4
20260510123030 45 0 0.0 0.0 0.00 0.00 0.00 89 1017.3
20260510122513 45 0 0.0 0.0 0.00 0.00 0.00 89 1017.4
20260510122014 45 0 0.0 0.0 0.00 0.00 0.00 89 1017.6
20260510121530 45 0 0.0 0.0 0.00 0.00 0.00 88 1017.5
20260510121012 45 0 0.0 0.0 0.00 0.00 0.00 88 1017.7
20260510120516 45 0 0.0 0.0 0.00 0.00 0.00 88 1017.5
20260510120031 45 0 0.0 0.0 0.00 0.00 0.00 88 1017.5
20260510115513 45 0 0.0 0.0 0.00 0.00 0.00 88 1017.5
20260510115018 45 0 0.0 0.0 0.00 0.00 0.00 88 1017.4
20260510114534 45 0 0.0 0.0 0.00 0.00 0.00 88 1017.1
20260510114013 46 0 0.0 0.0 0.00 0.00 0.00 88 1017.0
20260510113512 46 0 0.0 0.0 0.00 0.00 0.00 88 1017.2
20260510113032 46 0 0.0 0.0 0.00 0.00 0.00 88 1017.1
20260510112514 45 0 0.0 0.0 0.00 0.00 0.00 88 1017.2
20260510112014 46 0 0.0 0.0 0.00 0.00 0.00 88 1017.1
20260510111535 46 0 0.0 0.0 0.00 0.00 0.00 88 1017.0
20260510111012 46 0 0.0 0.0 0.00 0.00 0.00 88 1017.1
20260510110512 46 0 0.0 2.0 0.00 0.00 0.00 88 1016.9
20260510110051 46 0 0.0 2.0 0.00 0.00 0.00 88 1016.8
20260510105511 46 0 0.0 0.0 0.00 0.00 0.00 88 1017.0
20260510105016 46 0 0.0 0.0 0.00 0.00 0.00 87 1017.2
20260510104535 46 0 0.0 0.0 0.00 0.00 0.00 87 1017.4
20260510104013 46 0 0.0 0.0 0.00 0.00 0.00 87 1017.2
20260510103515 46 0 0.0 0.0 0.00 0.00 0.00 87 1017.1
20260510103032 46 0 0.0 0.0 0.00 0.00 0.00 87 1017.1
20260510102516 46 0 0.0 0.0 0.00 0.00 0.00 87 1017.0
20260510102018 46 0 0.0 0.0 0.00 0.00 0.00 87 1016.8
20260510101535 46 0 0.0 0.0 0.00 0.00 0.00 87 1016.8
20260510101014 46 0 0.0 2.0 0.00 0.00 0.00 87 1016.8
20260510100514 47 0 0.0 0.0 0.00 0.00 0.00 87 1016.7
20260510100033 47 0 0.0 0.0 0.00 0.00 0.00 87 1016.6
20260510095511 47 0 0.0 0.0 0.00 0.00 0.00 87 1016.6
20260510095013 47 0 0.0 0.0 0.00 0.00 0.00 87 1016.7
20260510094533 47 0 0.0 0.0 0.00 0.00 0.00 87 1016.7
20260510094014 47 0 0.0 0.0 0.00 0.00 0.00 87 1016.7
20260510093511 47 0 0.0 0.0 0.00 0.00 0.00 87 1016.7
20260510093035 47 0 0.0 0.0 0.00 0.00 0.00 87 1016.8
20260510092515 47 0 0.0 0.0 0.00 0.00 0.00 86 1016.8
20260510092016 47 0 0.0 0.0 0.00 0.00 0.00 86 1016.7
20260510091535 48 0 0.0 0.0 0.00 0.00 0.00 86 1016.7
20260510091013 48 0 0.0 0.0 0.00 0.00 0.00 86 1016.8
20260510090514 48 0 0.0 0.0 0.00 0.00 0.00 86 1016.7
20260510090035 48 0 0.0 0.0 0.00 0.00 0.00 86 1016.7
20260510085515 48 0 0.0 0.0 0.00 0.00 0.00 86 1016.8
20260510085013 48 0 0.0 0.0 0.00 0.00 0.00 86 1016.6
20260510084532 48 0 0.0 0.0 0.00 0.00 0.00 86 1016.6
20260510084014 48 0 0.0 0.0 0.00 0.00 0.00 86 1016.6
20260510083514 48 0 0.0 0.0 0.00 0.00 0.00 86 1016.7
20260510083037 49 0 0.0 0.0 0.00 0.00 0.00 86 1016.6
20260510082515 49 0 0.0 0.0 0.00 0.00 0.00 86 1016.5
20260510082015 49 0 0.0 0.0 0.00 0.00 0.00 85 1016.4
20260510081541 49 0 0.0 0.0 0.00 0.00 0.00 85 1016.3
20260510081012 49 0 0.0 0.0 0.00 0.00 0.00 85 1016.3
20260510080515 49 0 0.0 0.0 0.00 0.00 0.00 85 1016.3
20260510080030 49 0 0.0 0.0 0.00 0.00 0.00 85 1016.3
20260510075515 49 0 0.0 0.0 0.00 0.00 0.00 84 1016.2
20260510075013 50 0 0.0 0.0 0.00 0.00 0.00 84 1016.2
20260510074532 50 0 0.0 0.0 0.00 0.00 0.00 84 1016.2
20260510074019 50 0 0.0 0.0 0.00 0.00 0.00 85 1016.2
20260510073515 50 0 0.0 0.0 0.00 0.00 0.00 85 1016.2
20260510073042 50 0 0.0 2.0 0.00 0.00 0.00 84 1016.2
20260510072521 50 0 0.0 2.0 0.00 0.00 0.00 84 1016.3
20260510072016 50 0 0.0 0.0 0.00 0.00 0.00 84 1016.2
20260510071535 50 0 0.0 0.0 0.00 0.00 0.00 83 1016.1
20260510071014 51 0 0.0 0.0 0.00 0.00 0.00 83 1016.1
20260510070516 51 0 0.0 0.0 0.00 0.00 0.00 83 1016.1
20260510070036 51 0 0.0 0.0 0.00 0.00 0.00 83 1016.0
20260510065514 51 0 0.0 0.0 0.00 0.00 0.00 83 1016.0
20260510065013 51 0 0.0 0.0 0.00 0.00 0.00 82 1016.0
20260510064546 51 0 0.0 0.0 0.00 0.00 0.00 82 1015.9
20260510064011 52 0 0.0 0.0 0.00 0.00 0.00 82 1016.0
20260510063513 52 0 0.0 0.0 0.00 0.00 0.00 82 1016.1
20260510063041 52 0 0.0 0.0 0.00 0.00 0.00 82 1016.0
20260510062512 52 0 0.0 0.0 0.00 0.00 0.00 81 1016.0
20260510062020 53 0 0.0 0.0 0.00 0.00 0.00 81 1016.0
20260510061536 53 0 0.0 0.0 0.00 0.00 0.00 81 1016.1
20260510061015 53 0 0.0 0.0 0.00 0.00 0.00 80 1016.1
20260510060515 53 0 0.0 0.0 0.00 0.00 0.00 80 1016.1
20260510060042 54 0 0.0 0.0 0.00 0.00 0.00 80 1016.2
20260510055514 54 0 0.0 0.0 0.00 0.00 0.00 80 1016.2
20260510055015 54 0 0.0 0.0 0.00 0.00 0.00 79 1016.2
20260510054536 54 0 0.0 0.0 0.00 0.00 0.00 79 1016.3
20260510054017 55 0 0.0 0.0 0.00 0.00 0.00 79 1016.2
20260510053515 55 0 0.0 0.0 0.00 0.00 0.00 78 1016.3
20260510053042 55 0 0.0 0.0 0.00 0.00 0.00 77 1016.2
20260510052514 55 0 0.0 0.0 0.00 0.00 0.00 77 1016.1
20260510052020 56 0 0.0 0.0 0.00 0.00 0.00 77 1016.1
20260510051530 56 0 0.0 0.0 0.00 0.00 0.00 77 1016.1
20260510051013 56 0 0.0 0.0 0.00 0.00 0.00 77 1016.1
20260510050513 56 0 0.0 0.0 0.00 0.00 0.00 76 1016.0
20260510050032 57 0 0.0 0.0 0.00 0.00 0.00 76 1016.1
20260510045515 57 0 0.0 0.0 0.00 0.00 0.00 76 1016.1
20260510045014 57 0 0.0 0.0 0.00 0.00 0.00 75 1016.0
20260510044544 57 0 0.0 0.0 0.00 0.00 0.00 75 1016.0
20260510044013 58 0 0.0 0.0 0.00 0.00 0.00 74 1016.0
20260510043511 58 0 0.0 0.0 0.00 0.00 0.00 73 1015.9
20260510043042 59 0 0.0 0.0 0.00 0.00 0.00 73 1015.9
20260510042515 59 0 0.0 0.0 0.00 0.00 0.00 72 1015.8
20260510042015 59 0 0.0 0.0 0.00 0.00 0.00 71 1016.0
20260510041534 60 0 0.0 0.0 0.00 0.00 0.00 71 1015.9
20260510041014 60 0 0.0 0.0 0.00 0.00 0.00 70 1016.0
20260510040516 61 0 0.0 0.0 0.00 0.00 0.00 70 1015.9
20260510040040 61 0 0.0 0.0 0.00 0.00 0.00 69 1015.8
20260510035514 61 0 0.0 0.0 0.00 0.00 0.00 68 1015.8
20260510035011 62 0 0.0 0.0 0.00 0.00 0.00 67 1015.7
20260510034535 62 0 0.0 0.0 0.00 0.00 0.00 67 1015.8
20260510034015 62 0 0.0 0.0 0.00 0.00 0.00 66 1015.9
20260510033516 63 0 0.0 0.0 0.00 0.00 0.00 64 1015.9
20260510033048 63 0 0.0 0.0 0.00 0.00 0.00 64 1015.7
20260510032513 63 0 0.0 0.0 0.00 0.00 0.00 63 1015.7
20260510032018 64 0 0.0 0.0 0.00 0.00 0.00 61 1015.7
20260510031537 64 0 0.0 0.0 0.00 0.00 0.00 61 1015.7
20260510031014 65 0 0.0 0.0 0.00 0.00 0.00 61 1015.7
20260510030524 65 0 0.0 0.0 0.00 0.00 0.00 60 1015.7
20260510030042 65 0 0.0 0.0 0.00 0.00 0.00 62 1015.8
20260510025514 66 0 0.0 0.0 0.00 0.00 0.00 61 1015.8
20260510025016 66 0 0.0 0.0 0.00 0.00 0.00 61 1015.7
20260510024533 66 0 0.0 0.0 0.00 0.00 0.00 62 1015.6
20260510024015 67 0 0.0 0.0 0.00 0.00 0.00 60 1015.7
20260510023516 67 0 0.0 0.0 0.00 0.00 0.00 60 1015.7
20260510023031 67 0 0.0 0.0 0.00 0.00 0.00 60 1015.8
20260510022514 68 0 0.0 0.0 0.00 0.00 0.00 62 1015.9
20260510022018 68 0 0.0 0.0 0.00 0.00 0.00 61 1015.8
20260510021533 68 0 0.0 0.0 0.00 0.00 0.00 58 1015.9
20260510021013 69 0 0.0 0.0 0.00 0.00 0.00 59 1015.9
20260510020515 69 0 0.0 0.0 0.00 0.00 0.00 58 1015.9
20260510020032 69 0 0.0 0.0 0.00 0.00 0.00 59 1016.1
20260510015514 69 0 0.0 0.0 0.00 0.00 0.00 59 1016.0
20260510015043 70 0 0.0 0.0 0.00 0.00 0.00 58 1016.0
20260510014535 70 0 0.0 2.0 0.00 0.00 0.00 59 1016.2
20260510014011 70 0 0.0 2.0 0.00 0.00 0.00 59 1016.3
20260510013514 70 0 0.0 2.0 0.00 0.00 0.00 56 1016.3
20260510013035 70 0 0.0 2.0 0.00 0.00 0.00 59 1016.3
20260510012516 70 0 0.0 1.0 0.00 0.00 0.00 59 1016.4
20260510012014 70 0 0.0 2.0 0.00 0.00 0.00 59 1016.4
20260510011533 70 0 0.0 2.0 0.00 0.00 0.00 56 1016.4
20260510011014 71 0 0.0 2.0 0.00 0.00 0.00 57 1016.6
20260510010514 71 0 0.0 2.0 0.00 0.00 0.00 56 1016.5
20260510010032 71 0 0.0 2.0 0.00 0.00 0.00 55 1016.5
20260510005514 71 339 0.0 2.0 0.00 0.00 0.00 58 1016.6
20260510005013 71 339 0.0 2.0 0.00 0.00 0.00 57 1016.8
20260510004531 71 0 0.0 2.0 0.00 0.00 0.00 58 1016.9
20260510004013 71 0 0.0 2.0 0.00 0.00 0.00 59 1016.9
20260510003512 71 284 0.0 2.0 0.00 0.00 0.00 53 1017.0
20260510003037 70 0 0.0 2.0 0.00 0.00 0.00 58 1017.0
20260510002512 71 0 0.0 2.0 0.00 0.00 0.00 57 1017.0
20260510002013 71 56 0.0 2.0 0.00 0.00 0.00 53 1017.0
20260510001534 71 276 0.0 2.0 0.00 0.00 0.00 56 1017.0
20260510001014 71 0 0.0 2.0 0.00 0.00 0.00 60 1016.9
20260510000514 71 0 0.0 2.0 0.00 0.00 0.00 59 1017.1
20260510000032 71 0 0.0 2.0 0.00 0.00 0.00 60 1017.3
20260509235514 71 266 0.0 2.0 0.00 0.00 0.00 58 1017.4
20260509235019 71 0 0.0 2.0 0.00 0.00 0.00 60 1017.3
20260509234547 71 157 0.0 2.0 0.00 0.00 0.00 58 1017.4
20260509234016 71 68 0.0 2.0 0.00 0.00 0.00 57 1017.5
20260509233514 71 0 0.0 2.0 0.00 0.00 0.00 60 1017.6
20260509233030 71 250 0.0 2.0 0.00 0.00 0.00 60 1017.6
20260509232514 71 239 0.0 2.0 0.00 0.00 0.00 59 1017.5
20260509232014 71 257 0.0 2.0 0.00 0.00 0.00 60 1017.5
20260509231533 71 0 0.0 2.0 0.00 0.00 0.00 59 1017.6